Rogers, AR

10:56 PM CDT on April 28, 2017 (GMT -0500)
Rogers Municipal-Carter

Weather History for KROG - May, 2014

Change the Weather History Date:

Sunday, May 25, 2014

  Actual Average Record
Temperature  
Mean Temperature 71 °F -  
Max Temperature 80 °F 74 °F 91 °F (2006)
Min Temperature 62 °F 56 °F 42 °F (2001)
Cooling Degree Days 6    
Growing Degree Days 21 (Base 50)    
Moisture  
Dew Point 64 °F    
Average Humidity 76    
Maximum Humidity 93    
Minimum Humidity 58    
Precipitation  
Precipitation 0.03 in - - ()
Sea Level Pressure  
Sea Level Pressure 30.02 in    
Wind  
Wind Speed 6 mph (SE)    
Max Wind Speed 14 mph    
Max Gust Speed -    
Visibility 10 miles    
Events Rain , Thunderstorm    
Averages and records for this station are not official NWS values.
T = Trace of Precipitation, MM = Missing Value Source: NWS Daily Summary

Daily Weather History Graph

Daily Weather History Graph

Search for Another Location

Airport or City:

Trip Planner

Search our weather history database for the weather conditions in past years. The results will help you decide how hot, cold, wet, or windy it might be!

Date:

Astronomy

May. 25, 2014 Rise Set
Actual Time 6:03 AM CDT 8:24 PM CDT
Civil Twilight 5:33 AM CDT 8:53 PM CDT
Nautical Twilight 4:57 AM CDT 9:29 PM CDT
Astronomical Twilight 4:17 AM CDT 10:09 PM CDT
Moon 4:02 AM CDT (5/25) 5:30 PM CDT (5/25)
Length of Visible Light 15h 19m
Length of Day
14h 20m
Waning Crescent, 10% of the Moon is Illuminated
May 25
Waning Crescent
May 28
New
Jun 5
First Quarter
Jun 12
Full
Jun 19
Last Quarter

Hourly Weather History & Observations

Time (CDT) Temp. Heat Index Dew Point Humidity Pressure Visibility Wind Dir Wind Speed Gust Speed Precip Events Conditions
12:57 AM 66.9 °F - 63.0 °F 87% 30.01 in 10.0 mi ESE 6.9 mph - N/A   Clear
1:57 AM 64.0 °F - 62.1 °F 93% 30.01 in 10.0 mi SSE 3.5 mph - N/A   Clear
2:57 AM 64.0 °F - 62.1 °F 93% 30.01 in 10.0 mi SE 5.8 mph - N/A   Clear
3:57 AM 64.0 °F - 61.0 °F 90% 30.01 in 10.0 mi SE 3.5 mph - N/A   Clear
4:57 AM 62.1 °F - 60.1 °F 93% 30.02 in 3.0 mi Calm Calm - N/A   Clear
5:57 AM 63.0 °F - 61.0 °F 93% 30.04 in 9.0 mi East 3.5 mph - N/A   Clear
6:57 AM 64.0 °F - 61.0 °F 90% 30.06 in 7.0 mi ESE 3.5 mph - N/A   Clear
7:57 AM 66.9 °F - 62.1 °F 84% 30.07 in 10.0 mi ESE 5.8 mph - N/A   Clear
8:57 AM 71.1 °F - 63.0 °F 75% 30.08 in 10.0 mi South 6.9 mph - N/A   Clear
10:57 AM 77.0 °F - 63.0 °F 62% 30.06 in 10.0 mi SSW 8.1 mph - N/A   Overcast
11:57 AM 77.0 °F - 64.0 °F 64% 30.06 in 10.0 mi South 10.4 mph - N/A   Mostly Cloudy
12:57 PM 79.0 °F - 64.9 °F 62% 30.04 in 10.0 mi SSE 9.2 mph - N/A   Partly Cloudy
1:57 PM 79.0 °F - 64.9 °F 62% 30.04 in 10.0 mi SE 8.1 mph - N/A   Mostly Cloudy
2:45 PM 80.6 °F 82.3 °F 64.4 °F 58% 30.06 in 10.0 mi South 13.8 mph - N/A Thunderstorm Mostly Cloudy
2:57 PM 80.1 °F 81.7 °F 64.0 °F 58% 30.03 in 10.0 mi SSW 9.2 mph - N/A Thunderstorm Partly Cloudy
3:05 PM 80.6 °F 82.3 °F 64.4 °F 58% 30.06 in 10.0 mi South 8.1 mph - N/A   Clear
3:57 PM 80.1 °F 82.1 °F 66.0 °F 62% 29.99 in 10.0 mi Variable 3.5 mph - 0.00 in   Partly Cloudy
4:57 PM 80.1 °F 82.1 °F 66.0 °F 62% 29.97 in 10.0 mi SSE 8.1 mph - N/A   Scattered Clouds
5:57 PM 75.9 °F - 69.1 °F 79% 29.97 in 10.0 mi ENE 4.6 mph - 0.03 in   Mostly Cloudy
6:03 PM 75.2 °F - 69.8 °F 83% 30.01 in 9.0 mi NE 4.6 mph - 0.00 in Rain , Thunderstorm Light Thunderstorms and Rain
6:36 PM 75.2 °F - 69.8 °F 83% 30.01 in 10.0 mi ENE 4.6 mph - 0.00 in   Mostly Cloudy
6:57 PM 75.0 °F - 70.0 °F 84% 29.98 in 10.0 mi ESE 3.5 mph - 0.00 in   Overcast
7:14 PM 75.2 °F - 66.2 °F 73% 30.01 in 10.0 mi SSE 9.2 mph - N/A Thunderstorm Overcast
7:57 PM 75.0 °F - 64.9 °F 71% 29.99 in 10.0 mi SSE 10.4 mph - N/A   Clear
8:57 PM 72.0 °F - 64.9 °F 78% 30.00 in 10.0 mi SE 4.6 mph - N/A   Clear
10:57 PM 70.0 °F - 64.0 °F 81% 30.02 in 10.0 mi SE 6.9 mph - N/A   Clear
11:57 PM 69.1 °F - 64.0 °F 84% 30.03 in 10.0 mi SE 3.5 mph - N/A   Clear